Theta_e
293 288 286 286 289 291 290 290 291 292 291 286 285 283 285 284 286 287 289 290 288 286 287 289 289 289 290 291 293 295 296 294 294 294 294 295 295 295 296 296 296 296 297 301 300 298 297 297 297 297 298 298 297 296 296 296 295 294 294 294 293 294 294 294 293 292 291 290 289 289 289 290 290 290 289 288 288 288 289 288 288 288 288 287 287 286
292 287 286 291 292 293 291 291 291 290 288 287 286 283 286 283 285 290 290 291 287 286 284 286 289 289 290 292 293 294 294 293 294 295 295 295 295 296 296 296 297 298 299 298 298 298 294 295 295 295 296 296 295 295 295 295 295 295 294 294 294 294 294 294 294 293 292 292 291 291 290 291 290 290 289 288 288 288 289 288 288 288 287 286 286 286
286 286 289 292 294 291 289 288 287 287 287 285 286 286 284 285 287 290 290 292 289 285 287 288 287 289 290 291 293 293 294 296 296 296 297 296 296 296 296 296 297 297 297 298 298 298 296 294 293 294 295 296 297 296 296 296 295 294 293 294 294 294 293 294 294 293 292 292 292 291 291 291 289 290 289 289 288 288 288 288 287 287 287 286 286 286
284 285 290 293 291 289 288 286 285 285 285 284 284 281 283 286 284 284 284 286 285 288 283 282 285 288 289 291 292 294 295 295 297 296 296 297 296 296 297 298 298 297 298 297 298 298 297 293 293 293 294 296 296 296 295 295 294 294 294 293 293 293 293 293 293 294 293 292 291 289 289 289 288 287 288 287 286 286 286 287 287 287 287 286 286 285
289 288 291 291 289 289 289 288 285 284 286 285 286 285 285 285 287 286 285 284 285 285 284 286 286 288 289 289 289 292 294 293 294 295 295 296 297 297 298 297 297 297 298 298 298 298 297 291 292 293 295 294 295 295 295 295 294 295 294 293 293 293 293 293 294 293 292 291 288 287 287 287 286 286 286 285 284 286 287 287 286 286 286 286 286 285
288 290 287 288 288 287 287 286 286 286 285 286 284 287 288 289 287 286 286 284 280 281 281 284 282 285 284 288 289 291 289 290 292 292 293 295 296 297 295 296 297 297 297 297 298 298 298 294 292 292 293 293 295 295 296 296 295 295 294 293 293 293 293 293 293 293 292 291 289 288 287 286 287 285 285 286 286 286 286 287 287 286 286 286 286 285
289 290 290 288 287 286 285 286 287 287 287 285 283 287 289 288 286 285 285 284 278 277 283 283 280 282 282 283 286 287 287 289 290 289 292 294 295 295 295 295 296 296 296 296 296 297 297 296 292 292 293 294 294 296 296 295 295 294 293 293 293 293 292 293 292 292 292 290 290 289 289 289 288 288 287 289 288 288 287 287 286 286 286 286 286 285
286 286 286 287 286 285 283 283 288 288 286 284 283 285 286 285 284 285 284 284 282 280 283 283 282 279 282 285 288 289 289 288 289 291 292 293 295 294 294 295 295 297 296 296 296 297 297 297 296 294 293 294 295 295 294 294 293 293 292 292 292 292 292 292 292 292 292 291 290 289 289 289 289 289 289 288 288 287 287 286 286 286 285 285 286 285
287 285 284 284 284 283 285 289 288 289 287 283 285 284 286 286 285 283 284 281 280 280 280 282 282 280 280 285 286 287 285 287 288 291 293 295 295 295 295 295 295 296 296 295 295 296 296 295 294 294 293 294 294 293 294 294 293 293 292 292 292 292 292 292 291 291 291 291 290 290 290 289 290 290 289 287 287 286 286 286 285 285 285 285 285 285
285 287 286 288 286 285 288 287 287 290 286 285 284 284 282 282 281 282 280 282 279 277 279 280 282 278 282 288 283 283 285 286 288 292 293 294 294 294 295 296 295 295 295 296 295 295 294 293 293 293 293 292 293 293 294 293 292 292 291 291 291 291 291 291 291 291 291 291 291 290 289 289 289 288 286 286 285 285 285 285 285 285 285 285 284 284
286 290 288 287 286 289 285 284 284 288 287 284 284 285 282 280 278 277 277 278 279 277 281 281 283 283 279 283 283 283 286 288 291 289 290 292 292 294 294 294 296 296 296 296 294 291 291 290 291 291 291 292 290 290 292 292 292 291 291 291 290 291 291 291 290 291 290 290 290 290 290 289 289 288 286 285 284 285 284 285 284 285 285 285 284 284
287 287 287 286 288 285 285 286 283 283 284 286 287 279 282 283 277 276 270 276 274 277 280 283 283 284 279 280 282 284 283 282 288 288 290 290 291 293 293 294 294 294 294 293 292 293 290 290 289 289 290 289 289 289 290 290 291 291 291 290 290 290 290 290 290 290 290 290 290 290 290 289 289 288 287 286 285 285 285 285 285 285 284 284 284 284
282 286 286 288 288 291 285 287 284 282 286 284 282 283 280 274 273 270 271 271 271 277 277 281 282 279 281 286 283 285 287 286 285 290 291 290 290 290 291 292 293 293 292 293 291 290 291 290 289 288 289 288 288 289 289 290 290 290 290 290 289 289 290 290 290 290 290 290 290 290 290 289 289 288 288 287 287 286 286 285 285 284 284 284 283 283
283 281 285 287 289 289 290 285 282 283 284 284 284 281 278 272 271 268 265 264 269 276 277 279 281 281 285 283 287 291 293 293 289 288 289 290 291 291 292 293 294 295 295 293 290 290 290 291 291 290 289 289 289 288 289 289 290 290 290 290 289 290 289 289 289 289 289 290 290 290 290 290 289 289 288 287 287 287 286 286 286 285 285 284 284 284
280 284 284 286 284 287 291 291 289 288 285 286 285 286 283 280 272 268 270 277 278 280 276 276 277 275 274 281 284 293 291 288 287 289 289 288 289 290 291 291 292 293 294 292 290 292 292 292 291 291 290 290 289 289 289 289 289 289 290 290 289 289 289 289 289 289 289 290 290 290 290 290 289 289 288 288 288 287 286 286 286 286 285 285 285 285
284 285 285 290 286 289 290 292 288 282 283 284 282 281 279 282 281 281 282 281 282 277 274 273 278 276 283 286 286 284 286 288 288 287 286 289 288 288 291 291 292 293 293 294 293 292 291 291 291 290 290 290 289 288 289 289 289 290 290 290 290 290 290 289 289 289 289 289 290 289 289 289 289 289 288 288 288 288 287 286 286 286 286 286 285 285
283 281 286 288 286 287 287 285 289 288 280 281 284 281 285 283 284 283 282 279 275 273 278 276 277 282 284 289 290 291 290 290 289 288 287 287 287 286 288 290 290 291 291 292 293 293 291 290 290 290 289 289 289 289 289 290 290 290 290 290 290 290 289 289 289 289 289 289 289 289 289 289 288 288 288 288 288 287 287 286 286 286 286 285 285 285
285 286 287 285 286 287 284 285 286 283 286 283 279 283 285 284 284 282 276 275 276 276 278 282 281 281 281 281 283 284 283 285 283 284 284 285 285 286 291 290 291 291 292 291 290 290 290 289 290 290 290 290 291 291 289 290 289 289 290 290 290 290 289 290 290 289 289 289 289 289 289 289 289 289 289 289 288 287 286 286 286 286 285 285 285 285
288 282 287 285 285 286 284 288 287 286 285 283 282 286 284 278 278 279 275 275 276 276 278 280 283 283 284 285 286 284 284 285 288 285 284 287 287 288 289 290 291 290 291 292 292 292 292 290 291 290 291 291 290 290 290 289 289 289 289 290 290 290 291 290 290 290 290 289 289 290 289 289 289 289 289 289 288 287 286 285 286 285 285 285 284 284
287 283 284 287 287 287 284 285 279 283 287 286 286 284 284 281 278 276 280 277 280 277 279 279 284 281 287 282 285 287 288 289 285 283 285 288 288 289 290 290 292 294 296 293 292 295 295 293 291 289 290 288 290 289 290 289 288 289 290 289 289 290 289 289 289 289 289 290 290 290 289 289 289 289 289 288 288 286 286 286 285 285 284 284 284 284
285 287 279 287 286 286 282 284 282 284 283 285 285 283 285 283 283 282 282 280 280 279 279 279 278 284 290 286 286 287 287 284 284 287 288 290 290 290 291 294 295 295 293 292 293 293 295 296 298 295 290 288 285 286 288 289 290 290 289 289 289 289 289 289 290 289 290 290 289 289 289 289 289 288 289 288 287 286 286 286 285 285 285 284 283 283
286 285 283 286 286 286 287 287 287 286 288 286 286 284 286 284 282 280 278 285 281 280 278 279 277 285 292 296 290 292 285 285 286 288 290 290 291 292 294 292 289 288 290 291 292 293 294 295 297 298 295 288 286 287 288 289 288 288 289 290 289 289 288 289 289 289 290 290 290 289 289 289 288 288 288 287 287 286 286 285 285 285 284 283 283 283
289 285 284 282 285 287 290 291 288 289 288 288 288 286 289 286 285 282 277 281 284 284 286 284 281 283 295 297 297 289 287 287 288 289 290 291 290 289 289 288 288 289 290 292 294 296 294 293 294 293 292 292 290 291 290 288 288 289 288 288 288 289 289 289 289 290 290 289 289 288 289 288 288 287 287 287 286 286 286 285 285 284 283 283 283 283
292 283 281 284 287 289 291 292 291 288 288 287 286 287 286 284 286 285 285 285 283 283 282 282 279 283 294 296 296 296 294 293 291 290 292 291 288 288 288 290 292 292 294 295 295 293 294 291 291 291 293 293 292 291 290 290 289 289 288 288 288 288 289 289 289 289 289 289 289 289 288 288 288 287 286 286 286 286 286 285 285 284 284 283 283 282
285 284 287 282 283 283 285 286 288 287 285 286 287 288 288 289 288 287 287 284 281 282 283 281 276 283 291 294 296 296 295 295 295 293 289 289 290 291 291 291 292 293 294 294 293 293 291 291 291 293 293 292 292 291 290 290 289 289 288 288 288 289 290 290 289 289 288 288 288 288 287 287 287 287 286 286 286 286 286 286 285 284 283 283 282 282
288 286 284 279 277 276 276 277 279 282 284 284 284 287 288 287 286 285 281 283 279 283 285 281 281 287 292 293 292 293 293 293 295 295 292 289 291 293 293 293 293 293 293 293 292 290 291 292 291 291 291 292 292 291 291 290 290 289 289 289 289 289 289 289 289 288 288 288 287 287 287 287 287 287 286 286 286 286 286 286 285 283 283 283 282 281
282 284 287 285 283 281 283 285 286 286 282 283 280 283 285 287 287 286 285 282 280 283 282 284 285 285 287 289 290 292 293 293 293 295 296 295 290 290 290 290 290 291 291 291 290 290 289 289 290 291 291 291 291 292 292 291 291 290 290 289 289 289 289 289 288 288 288 288 287 287 287 287 287 287 287 287 287 287 286 285 284 283 283 282 282 281
281 282 285 286 286 286 288 287 289 289 285 286 285 284 284 283 284 283 282 280 286 282 278 286 287 284 286 289 290 291 292 293 294 295 296 297 297 297 296 293 290 287 288 288 287 287 287 286 287 287 288 289 290 290 290 291 291 291 290 290 290 289 288 289 287 288 288 288 287 287 287 287 287 287 287 287 287 286 285 285 284 283 283 282 281 281
283 283 286 286 285 287 287 287 288 288 287 287 287 286 285 287 285 282 282 285 285 281 279 285 287 285 287 289 291 292 293 293 294 295 296 297 297 293 286 286 286 285 285 285 285 285 285 285 285 286 286 287 288 289 289 290 291 290 289 289 290 289 288 288 287 287 287 287 287 287 287 287 287 287 287 286 285 285 284 284 284 283 282 281 281 281
284 281 284 285 284 285 286 286 287 286 286 286 286 286 287 286 286 286 285 286 285 283 285 286 286 285 288 290 291 292 293 293 293 293 291 288 284 284 285 283 283 284 283 284 284 284 285 285 285 285 286 286 287 288 288 289 289 290 290 290 289 288 288 286 287 287 287 287 287 288 287 287 287 286 286 285 285 285 284 283 283 282 282 281 281 280
285 280 287 283 281 282 285 287 287 286 285 284 285 286 286 286 286 286 286 286 287 285 286 286 285 285 289 283 281 282 283 284 285 283 283 282 282 281 281 281 281 282 282 283 283 283 284 284 284 285 285 286 286 287 288 289 289 289 290 290 290 290 288 286 287 287 286 287 287 287 286 286 286 286 285 285 285 285 284 283 282 281 281 280 279 279
284 280 285 282 278 278 283 284 285 285 285 283 283 284 284 284 282 285 284 287 285 284 285 285 283 282 279 281 282 281 280 280 280 282 280 280 280 280 280 280 280 280 281 281 282 282 283 283 284 284 285 285 286 287 287 288 288 288 288 288 289 290 289 286 286 287 287 287 287 287 286 286 285 285 285 284 284 284 283 282 280 280 279 279 278 278
281 280 279 279 276 275 281 283 282 283 282 279 281 284 286 286 287 287 288 288 287 286 282 281 276 275 278 280 278 278 279 278 278 281 279 280 280 280 280 280 280 280 281 281 281 282 282 282 283 284 284 285 286 287 287 288 287 287 287 287 288 288 288 287 286 286 286 287 286 286 286 285 285 285 284 284 284 283 281 280 280 279 278 278 278 278
281 280 278 281 275 275 279 280 281 277 271 273 285 287 287 285 286 284 284 281 279 280 277 277 276 279 278 277 276 278 278 278 279 282 283 281 280 280 280 281 280 281 281 281 281 281 282 283 283 284 284 285 286 286 287 287 287 286 286 286 287 287 287 286 286 285 286 286 286 286 286 285 285 285 285 284 283 282 281 280 279 279 279 278 277 277
277 277 276 278 274 273 277 277 273 268 270 282 282 281 281 281 278 278 276 276 278 278 278 278 278 277 278 278 278 278 280 281 281 284 282 282 282 282 281 281 281 281 281 282 282 282 282 282 283 283 284 285 286 286 287 287 286 285 285 286 286 286 285 284 284 285 285 285 285 284 284 284 284 284 284 282 282 281 280 280 279 279 278 278 278 277
277 277 276 274 275 275 274 273 268 268 282 281 281 279 280 281 279 278 277 275 276 278 277 276 278 278 279 278 279 280 280 281 281 283 283 282 283 282 282 282 282 282 282 282 281 281 282 282 283 283 284 285 285 286 286 286 285 284 284 285 285 283 283 283 282 282 283 283 283 282 282 282 282 282 282 281 280 280 280 279 279 279 279 278 278 277
281 280 279 274 280 272 274 274 273 279 278 279 277 275 277 274 275 273 271 276 275 278 279 276 278 278 278 279 279 279 280 280 278 281 282 282 283 283 283 283 283 283 283 284 284 283 284 284 284 285 285 285 286 286 286 286 284 284 284 284 284 282 282 281 281 280 280 281 281 280 280 280 281 280 280 280 279 279 279 279 279 279 279 278 278 277
283 279 280 276 275 279 272 270 270 271 269 272 273 276 280 282 281 280 278 274 277 277 280 277 277 277 277 279 279 279 279 276 274 277 281 282 283 283 284 284 284 284 284 284 284 284 284 284 285 285 285 285 285 286 287 286 284 283 284 284 283 282 283 282 281 280 279 280 280 280 279 280 281 282 280 279 279 279 279 279 279 279 278 277 277 276
280 282 280 276 275 276 273 270 270 269 271 271 270 275 278 281 281 280 276 270 278 276 279 278 276 278 278 278 278 279 275 271 272 276 281 282 283 283 283 283 284 284 284 283 283 283 283 284 284 284 285 284 284 286 286 286 285 284 283 283 283 282 283 282 281 280 280 280 281 280 279 277 277 279 279 279 279 278 278 279 278 278 277 277 277 276
266 266 269 271 272 273 272 270 268 273 270 273 273 275 278 279 279 279 269 269 276 277 280 279 277 278 278 279 279 277 274 270 273 276 281 282 283 283 283 283 283 283 283 283 283 283 283 284 284 283 283 283 284 286 286 285 285 284 284 283 283 283 283 282 281 280 280 280 280 280 279 278 277 277 277 276 275 275 276 277 276 276 276 275 275 275
265 266 268 267 269 271 272 269 271 271 275 273 273 276 276 275 274 268 265 270 275 276 280 279 278 279 279 278 278 274 277 279 279 281 282 282 281 282 282 283 283 283 282 282 282 284 282 283 283 283 283 283 284 285 285 285 284 283 284 284 284 284 284 283 281 280 279 278 278 278 278 277 277 276 276 275 275 275 274 274 274 274 274 274 274 274
265 265 264 268 266 268 268 267 267 272 277 274 276 277 277 274 262 263 270 276 274 276 277 279 278 279 279 279 278 277 278 279 280 281 281 281 281 281 281 281 281 281 282 282 283 282 282 282 282 282 282 283 284 284 284 284 283 283 283 283 283 284 285 283 280 279 279 278 277 277 277 276 276 275 275 275 276 275 275 274 274 274 274 274 273 272
265 266 258 263 264 265 264 265 265 262 271 273 275 276 276 267 267 275 275 275 276 276 278 278 278 278 278 277 278 278 278 278 279 279 280 280 279 279 279 280 280 280 280 280 280 281 282 281 281 281 281 282 283 283 283 283 282 282 283 282 283 285 285 284 281 280 279 278 278 277 276 275 276 275 274 275 275 275 274 273 272 273 273 273 272 272
272 265 262 265 269 264 264 262 262 267 273 275 275 270 275 277 278 278 278 277 279 279 279 280 279 278 278 278 278 278 278 278 278 278 278 278 278 278 278 279 279 279 279 280 280 280 281 280 280 280 281 281 282 282 282 282 281 282 281 282 284 285 285 284 283 280 279 279 278 277 276 275 276 276 276 275 275 275 274 273 273 272 272 272 272 271
272 270 271 267 270 269 265 271 274 275 276 278 277 277 277 279 279 278 278 278 277 277 278 278 278 278 278 278 277 277 276 276 276 276 275 276 276 276 277 277 277 277 278 278 278 279 279 279 279 279 279 280 280 280 281 281 281 281 280 282 283 284 284 284 283 282 280 280 278 277 276 276 276 276 275 275 276 275 274 273 272 272 272 272 272 271
274 272 270 270 269 275 275 276 277 277 277 277 279 278 276 276 276 275 275 276 277 278 279 278 277 277 277 276 276 275 276 275 275 274 275 275 275 275 276 275 275 276 276 277 277 278 278 278 278 278 277 278 278 279 279 280 280 279 280 281 282 283 284 283 282 281 281 281 279 277 276 275 275 275 275 275 275 275 275 273 272 272 272 271 271 271
272 274 271 271 273 270 266 275 274 274 275 275 275 276 276 276 276 277 276 277 277 279 278 277 277 276 275 273 274 274 274 274 273 274 274 274 274 274 274 274 274 274 274 274 275 276 276 276 276 276 276 276 277 277 278 278 279 279 280 280 281 282 283 282 281 280 280 281 280 278 276 275 275 274 274 274 274 275 274 273 273 272 271 271 271 271
270 274 271 272 272 270 270 274 276 276 276 276 276 276 276 277 278 277 277 277 278 277 276 276 274 272 273 272 272 272 272 273 272 272 273 273 273 273 273 273 273 273 274 274 274 274 274 274 274 274 274 274 275 276 276 276 277 278 278 279 280 280 280 280 280 280 280 280 280 279 276 275 273 273 274 273 273 273 273 272 272 272 272 271 271 271
274 274 262 267 270 273 275 275 275 276 275 276 277 277 277 277 276 276 275 275 275 274 273 272 273 272 272 272 272 271 270 271 271 271 271 271 271 272 272 272 272 272 272 272 272 273 272 272 272 272 272 273 274 274 274 275 275 276 277 277 278 279 278 278 278 278 279 279 279 279 276 275 275 274 274 273 273 273 274 273 272 272 273 273 273 273
273 271 275 272 269 269 270 273 275 270 270 275 275 275 275 274 274 274 274 273 271 271 271 271 271 271 271 271 271 270 269 270 271 271 269 270 270 270 270 270 270 270 271 271 271 270 270 270 270 271 271 271 272 272 272 273 273 274 275 276 276 276 275 274 274 275 276 277 278 278 277 275 274 273 273 273 273 272 272 274 276 274 273 272 275 276
274 275 274 271 270 269 274 276 277 276 276 276 276 277 274 272 273 272 271 270 270 270 270 269 269 269 270 270 271 269 269 269 269 270 269 269 269 270 270 269 269 269 270 270 269 269 269 269 269 269 269 270 270 270 270 270 271 271 272 272 273 272 272 272 272 272 273 275 276 277 277 276 275 274 273 273 273 272 271 271 273 277 277 276 275 276
Wind_Speed
3 8 9 9 14 18 11 14 19 20 15 3 1 4 11 11 10 8 14 12 1 4 10 16 18 19 16 14 16 18 16 10 16 19 17 15 14 14 16 16 16 17 20 20 14 8 10 11 10 10 10 11 10 10 11 13 14 15 16 15 17 15 14 14 13 13 13 13 9 7 12 13 11 11 10 9 9 9 9 9 10 10 9 8 8 8
3 8 9 15 20 19 13 15 15 10 2 6 7 6 12 5 15 15 13 9 0 4 3 5 15 19 16 13 13 14 15 19 18 20 21 19 15 15 17 19 19 19 14 13 15 14 7 8 7 7 9 8 11 12 14 17 18 19 17 18 17 12 14 15 16 16 15 15 17 17 16 14 12 11 12 13 11 11 8 9 9 9 8 9 9 8
7 13 14 21 19 3 2 3 4 7 9 6 9 9 8 10 15 12 12 16 6 1 15 11 18 20 15 13 14 15 19 20 17 16 20 17 17 14 15 18 19 17 18 15 16 16 9 7 7 8 9 11 16 15 17 18 15 15 14 15 13 14 15 16 15 13 15 13 11 11 9 12 8 7 7 6 6 6 8 9 9 9 9 9 8 8
6 6 20 18 5 4 5 2 4 2 4 6 8 6 13 8 3 11 3 2 2 5 6 5 17 19 11 13 17 17 19 19 17 15 16 18 20 18 21 20 17 18 19 18 17 17 11 7 8 8 10 13 11 10 11 13 16 14 14 13 14 15 15 14 15 15 12 11 7 5 4 5 6 6 5 5 5 6 6 10 9 8 10 10 9 9
17 5 8 9 4 7 11 7 4 5 12 7 12 9 10 12 16 12 5 5 4 5 4 11 16 19 11 14 10 15 18 17 15 16 14 19 20 17 19 16 16 19 19 19 19 16 11 6 9 12 13 8 11 13 15 15 15 13 18 18 18 16 16 14 15 15 12 10 8 7 7 6 7 5 6 6 6 10 10 8 9 13 10 10 10 10
12 8 2 5 8 7 7 7 8 8 14 9 7 12 21 19 12 7 8 6 4 7 3 1 9 16 5 13 14 11 6 9 13 13 16 21 22 19 14 17 17 15 16 18 20 20 12 7 8 8 9 11 12 13 15 14 17 15 14 14 13 11 12 13 15 15 13 14 14 13 11 11 10 9 10 13 17 14 15 16 8 7 11 11 10 10
8 3 6 7 7 9 7 8 7 9 16 10 7 15 19 12 9 9 11 3 6 3 3 1 2 20 3 5 8 7 7 12 8 8 17 18 19 15 10 13 15 15 14 11 13 15 14 13 7 9 11 13 13 15 10 11 12 12 11 12 14 13 12 13 14 15 13 13 13 17 18 17 17 17 14 14 11 11 10 7 11 11 9 10 11 10
3 2 6 5 6 6 6 5 12 16 10 10 2 6 6 6 7 10 6 7 8 1 4 0 2 6 24 8 11 13 11 11 12 14 16 18 16 11 8 11 14 15 10 11 13 15 14 13 10 13 12 11 15 9 7 9 9 13 13 14 15 12 12 12 13 16 16 16 15 15 15 14 14 15 16 13 10 8 8 10 10 10 10 10 11 11
7 3 5 5 4 5 9 19 2 11 8 5 2 5 7 9 7 2 5 6 3 3 9 4 2 4 11 6 1 5 6 9 12 17 19 19 12 10 11 12 14 15 14 11 13 15 14 9 6 6 7 10 8 8 11 12 12 11 11 12 12 13 13 13 16 17 16 15 16 16 14 14 13 13 9 7 7 9 10 11 9 10 10 10 10 11
2 3 7 9 8 10 10 1 7 13 8 4 5 7 5 5 5 3 4 3 1 1 10 9 7 6 20 14 4 2 1 8 12 19 18 12 9 10 11 12 12 10 11 13 11 10 8 7 6 8 7 6 10 9 8 7 8 10 11 13 15 15 14 14 16 16 17 16 14 14 16 18 14 10 6 8 9 9 10 12 11 10 10 11 10 11
3 1 4 5 8 5 3 0 3 8 4 4 3 2 4 6 3 3 5 2 2 6 12 15 13 9 13 5 9 8 8 11 11 6 5 9 8 11 11 11 13 12 11 11 7 5 5 5 4 2 5 5 5 5 7 9 10 11 13 14 16 17 13 14 17 17 19 16 15 16 17 17 15 13 10 9 9 9 10 12 12 12 12 10 11 10
4 1 2 4 4 4 4 3 3 1 2 3 1 2 3 5 6 1 3 3 3 12 4 15 16 14 12 2 5 5 5 4 6 8 9 6 11 10 8 8 9 8 8 7 7 10 7 5 3 1 3 3 5 5 7 7 8 10 11 12 15 13 15 14 15 16 17 16 16 15 16 17 16 14 13 15 15 14 15 13 12 10 8 10 10 10
5 11 4 3 3 10 3 2 1 3 2 3 3 2 2 6 7 3 2 1 5 12 2 1 6 3 20 10 3 7 10 6 9 9 9 8 8 9 9 9 8 9 8 7 5 5 6 5 5 5 5 3 5 7 6 8 8 8 9 12 15 16 14 14 14 16 17 16 16 17 16 15 13 14 15 15 13 13 13 12 11 12 13 10 11 12
8 1 2 5 1 5 8 8 1 1 6 7 7 5 5 4 5 6 4 2 6 7 2 5 3 11 8 6 11 15 16 15 7 7 7 7 9 8 10 11 11 12 10 7 5 5 5 6 6 6 5 5 5 6 7 7 8 9 10 12 15 15 13 12 14 16 16 19 18 16 15 14 13 14 14 12 13 13 12 11 13 14 14 13 16 15
9 12 5 6 4 5 11 12 16 10 9 15 4 13 12 10 6 5 5 10 10 8 2 3 5 8 2 6 5 15 6 3 4 5 8 6 8 7 8 9 11 11 12 7 5 6 6 6 6 7 6 5 6 6 7 7 9 9 11 14 16 14 15 16 17 14 17 17 16 14 14 12 11 13 12 12 11 11 12 12 13 12 11 12 13 13
9 12 6 8 1 7 12 8 2 4 3 3 2 3 2 12 5 9 8 7 10 4 2 2 8 3 6 1 5 5 6 7 5 4 3 6 4 6 8 9 9 9 10 10 9 7 5 5 5 4 4 4 5 6 7 9 11 12 14 14 15 18 17 16 15 16 17 16 13 13 14 15 13 11 10 9 10 12 12 12 12 13 13 12 10 9
1 7 1 2 5 2 3 4 3 4 7 3 6 7 10 2 6 7 5 1 3 2 13 3 7 9 6 12 10 12 11 11 8 7 5 6 6 6 6 7 8 8 8 10 10 9 7 3 4 5 5 4 5 7 10 11 12 14 14 13 15 14 11 15 17 18 15 13 12 16 17 14 14 15 17 17 16 14 12 12 12 12 12 10 10 10
7 10 1 3 4 1 1 0 1 2 2 7 3 7 1 1 3 2 6 2 5 11 10 4 15 8 2 15 3 4 3 4 4 3 3 3 2 4 7 7 8 8 9 9 9 8 6 4 4 4 4 6 7 8 6 8 6 6 8 11 14 14 16 17 17 16 15 15 15 15 16 17 18 18 17 15 15 13 12 11 11 10 10 14 11 10
3 6 4 1 2 5 3 0 5 1 1 4 4 1 2 4 5 2 3 7 9 12 7 7 16 17 10 15 5 4 5 4 4 1 2 7 5 5 6 9 9 7 7 8 9 9 6 4 4 4 6 6 6 5 6 5 6 7 8 9 11 16 18 18 15 13 12 13 13 13 16 17 16 14 14 13 12 11 13 14 13 14 14 9 10 11
1 5 5 1 2 1 2 3 4 3 1 1 2 1 2 2 4 3 7 2 2 14 9 11 11 15 5 4 4 7 10 10 6 3 4 6 6 6 8 7 7 9 13 13 11 14 15 9 3 4 5 4 5 6 7 7 6 10 11 8 10 9 8 8 13 15 16 17 15 14 12 13 14 15 15 14 13 13 14 15 13 13 11 14 11 11
3 0 7 4 1 5 3 4 7 7 4 3 1 5 1 2 3 2 2 2 5 9 9 9 11 6 8 4 4 7 8 6 8 5 7 7 7 6 6 8 10 11 9 9 11 11 13 18 20 13 3 1 3 5 5 8 11 10 7 10 12 14 14 14 15 14 16 13 15 16 17 18 16 17 15 13 13 13 13 12 12 12 12 8 12 13
0 1 10 7 10 11 12 2 7 6 3 3 7 8 10 7 6 9 12 3 4 7 10 9 14 6 10 14 8 12 6 10 9 7 8 7 7 9 10 9 6 6 7 8 10 10 10 11 14 17 16 3 2 5 8 8 6 8 12 13 10 9 11 13 12 14 16 15 15 15 16 15 14 13 11 13 13 14 13 12 12 12 10 13 13 13
6 2 3 8 11 15 15 8 5 6 4 4 4 5 3 4 3 6 14 11 7 10 10 14 14 12 5 13 19 6 6 9 7 5 8 7 6 7 9 6 6 6 8 11 12 13 10 7 8 9 12 15 7 7 6 5 7 8 7 7 10 12 15 13 14 13 10 11 12 15 15 13 11 11 13 14 13 14 14 13 13 12 14 14 12 12
7 2 0 10 7 10 14 13 8 4 4 6 4 7 7 11 13 13 12 9 11 7 10 9 13 4 9 9 16 17 11 9 8 8 12 8 5 6 7 8 9 9 11 12 10 7 8 6 7 10 12 12 10 7 7 7 7 8 9 11 10 14 18 14 15 13 12 13 14 15 13 14 14 13 14 15 15 16 16 14 13 12 14 13 11 13
2 4 7 12 5 4 3 4 8 1 3 6 10 11 14 15 12 13 9 3 10 11 12 15 19 6 3 6 12 16 19 21 19 10 6 8 7 8 7 8 9 10 11 11 10 8 8 9 10 11 10 11 11 8 6 8 9 10 13 11 12 15 17 13 11 10 12 13 15 13 13 14 13 15 16 17 15 18 17 16 14 13 15 14 14 14
7 3 3 7 9 12 10 12 9 8 9 5 3 10 11 14 17 11 12 11 17 11 15 18 16 11 8 6 8 14 16 19 19 19 7 7 7 9 9 10 10 8 8 7 9 10 10 10 10 11 11 11 10 9 8 8 9 10 10 10 10 11 10 10 8 10 11 12 13 14 16 16 15 16 18 19 18 19 17 16 15 14 13 14 15 14
2 3 8 11 12 15 12 13 7 3 2 4 3 8 11 11 14 13 11 12 16 13 17 16 16 19 14 8 11 15 16 18 20 21 25 14 6 8 7 6 5 6 10 11 10 12 12 14 15 15 15 13 12 12 11 9 9 8 9 10 10 11 11 10 8 11 12 14 14 13 14 14 15 17 18 18 18 16 13 14 13 14 15 14 15 16
1 5 10 14 18 18 19 20 20 16 18 12 12 11 8 7 7 12 13 18 13 16 22 11 17 19 18 14 14 16 17 18 20 22 23 24 21 14 11 11 17 14 13 13 13 14 13 13 14 16 16 17 16 14 12 11 11 11 10 12 11 8 9 9 9 12 14 14 14 14 14 14 14 15 17 15 13 12 13 13 13 14 14 13 15 15
3 5 4 11 16 13 17 18 18 19 17 16 16 16 18 17 16 18 19 19 16 18 22 14 16 20 17 13 13 16 17 18 19 20 20 21 20 17 15 13 12 13 12 12 12 13 14 13 12 14 15 15 17 18 17 16 14 11 9 10 12 9 11 10 8 12 13 13 14 15 14 13 13 13 14 13 12 13 14 15 15 14 13 13 14 13
3 6 9 12 16 13 15 16 17 19 19 18 19 19 21 21 22 21 24 20 21 22 22 22 21 24 20 19 14 13 14 15 16 17 19 20 17 13 15 16 14 13 13 13 12 12 12 13 13 13 14 16 17 18 18 17 16 15 14 12 7 8 9 7 11 13 12 12 14 13 11 12 12 12 11 11 13 14 14 13 13 13 14 15 15 13
5 5 11 12 11 11 10 12 15 17 20 22 22 19 18 17 20 21 22 20 21 24 23 26 25 25 8 14 13 12 11 13 16 17 13 12 14 14 13 13 12 12 12 11 13 13 12 13 14 15 16 16 16 16 16 16 17 18 18 17 17 14 6 5 9 9 9 12 12 10 8 8 10 10 12 14 12 11 12 13 13 14 14 13 12 13
3 7 6 8 11 11 7 10 12 12 14 17 18 20 23 21 21 17 17 20 20 22 22 21 19 10 10 14 10 10 14 14 13 12 13 12 12 12 12 12 12 12 12 11 11 12 13 13 14 15 16 16 16 15 14 16 16 17 19 19 20 18 14 6 7 10 11 13 11 9 10 9 8 9 12 10 12 12 11 10 11 12 12 12 13 13
3 6 7 9 12 14 12 12 11 13 14 15 14 18 22 22 20 21 19 18 16 11 12 10 3 3 6 9 13 15 13 14 14 9 9 12 10 9 9 10 9 11 11 11 11 11 11 11 11 12 13 13 15 16 16 14 15 15 15 17 18 17 15 13 10 9 10 11 9 10 9 9 11 12 11 12 12 11 10 12 12 13 13 16 16 13
8 9 10 7 10 12 15 19 15 14 16 15 6 3 4 13 13 18 12 5 8 7 4 6 3 2 6 9 10 13 14 13 12 9 2 7 9 11 10 11 8 9 10 10 10 9 9 10 10 11 11 11 11 11 11 11 13 13 12 12 13 15 16 14 12 9 10 9 8 9 8 8 9 11 13 11 10 11 12 13 16 15 13 11 10 13
13 11 12 6 10 13 11 12 13 19 16 8 6 6 5 7 12 5 10 8 8 10 8 6 6 7 5 4 6 9 8 11 12 7 0 11 11 9 10 11 11 10 11 11 11 11 10 11 11 12 13 13 13 12 13 14 14 15 15 15 15 14 15 15 14 12 10 9 8 6 6 8 8 10 9 8 9 10 12 13 12 12 12 12 15 16
11 12 6 5 5 7 7 8 13 11 1 7 6 10 4 1 7 8 5 11 7 7 7 6 4 4 6 4 5 8 8 11 9 6 4 11 9 9 11 10 11 9 9 9 8 9 10 11 11 11 12 11 11 12 11 12 12 13 14 12 12 13 13 13 14 13 12 11 10 7 6 5 6 7 6 7 8 10 12 11 12 13 11 11 10 9
15 10 7 10 7 13 9 13 18 11 16 14 5 8 7 5 8 3 5 4 5 4 4 1 2 2 5 4 6 7 8 9 6 5 1 3 6 6 7 8 9 9 9 9 9 10 9 8 9 10 9 10 10 12 12 12 12 12 12 12 12 11 11 10 11 11 10 10 9 8 5 4 4 5 5 5 7 9 9 9 9 9 8 10 10 11
11 14 8 13 7 10 12 11 12 8 13 2 3 9 6 7 8 6 6 4 6 1 3 2 1 2 4 6 6 8 8 10 11 4 2 2 5 5 5 5 7 7 8 9 10 10 10 9 8 8 8 9 10 9 10 10 11 12 12 12 12 12 11 11 11 9 8 9 10 8 6 4 4 5 5 5 9 9 7 5 5 7 6 9 10 11
2 7 12 13 10 9 10 10 7 9 4 6 4 4 7 8 6 4 4 7 3 2 7 4 2 4 4 4 7 4 7 10 12 10 5 6 6 5 7 6 6 8 8 8 9 11 12 11 10 9 10 11 12 11 11 11 11 12 12 11 12 10 11 12 12 11 11 11 10 9 8 5 4 4 4 6 6 5 7 7 7 5 5 6 5 6
5 3 1 3 6 6 8 9 10 3 4 1 3 7 7 8 7 3 6 2 3 5 6 5 4 4 6 5 5 2 3 9 12 13 7 7 8 6 6 9 9 9 9 9 8 8 10 9 10 11 11 12 12 11 11 11 11 12 11 11 10 11 11 12 11 9 9 10 9 8 7 4 4 4 4 4 3 2 3 3 3 3 4 4 4 5
2 4 2 7 5 8 11 11 8 7 1 1 5 9 10 4 1 7 14 3 10 4 6 7 5 6 5 6 4 3 5 6 11 14 11 7 5 6 5 6 8 8 11 10 10 10 10 10 9 10 11 10 11 11 10 11 12 13 12 12 11 13 12 10 9 8 8 8 9 8 6 4 3 3 1 3 4 3 3 4 5 5 5 5 4 5
3 2 4 1 5 8 8 10 10 8 4 2 9 5 5 3 4 9 3 4 4 7 4 7 7 7 6 7 7 6 8 8 8 9 11 10 7 7 8 8 9 9 8 8 10 10 10 9 10 11 10 9 10 9 9 11 13 13 13 12 13 13 11 9 8 7 7 7 7 7 5 3 2 1 3 4 5 5 4 3 5 6 6 5 5 6
5 4 4 5 3 1 1 8 8 11 1 3 3 9 2 0 7 5 4 4 5 5 7 6 7 9 6 7 8 9 8 8 7 8 9 9 9 9 11 11 10 11 11 10 10 9 9 11 11 11 11 10 9 9 10 11 13 13 12 13 14 12 12 11 9 7 6 6 6 6 6 4 3 3 3 4 6 7 6 5 6 6 7 8 7 8
4 8 2 4 4 9 7 8 6 3 3 3 3 7 7 12 7 6 4 7 5 7 6 7 7 8 8 7 8 8 7 7 7 7 8 9 9 9 9 10 10 10 11 9 9 10 8 10 11 11 10 9 9 9 10 11 13 14 14 15 13 12 12 12 11 8 8 7 6 6 6 5 4 3 4 6 7 7 8 7 7 7 7 7 8 8
5 10 6 12 4 8 7 9 6 5 6 8 9 12 11 11 5 3 4 7 10 8 6 6 8 8 7 8 7 6 6 6 7 7 8 9 10 10 10 9 10 11 11 11 10 9 8 10 12 13 13 11 10 10 10 9 12 15 17 15 12 13 14 13 12 11 10 9 7 6 6 5 6 5 4 6 8 8 8 8 8 8 7 8 8 8
2 2 0 2 5 7 7 8 12 10 8 12 11 11 8 6 7 5 5 9 8 10 7 7 6 7 6 4 5 5 6 6 6 8 9 9 10 11 11 10 10 10 10 10 9 9 9 11 12 13 13 13 11 12 11 10 10 14 16 14 13 13 13 14 13 13 13 12 8 7 6 7 7 7 6 7 7 8 8 10 10 9 9 9 9 9
6 5 3 6 8 8 11 7 7 8 8 8 11 10 6 6 8 9 10 9 9 9 8 6 7 5 3 1 5 6 6 6 7 9 9 9 10 11 12 13 12 11 12 12 12 10 9 9 11 12 13 15 14 11 10 12 11 11 13 15 13 13 13 14 14 14 13 12 11 7 6 8 7 6 6 7 6 6 7 8 8 9 10 10 10 11
8 5 6 11 13 10 15 16 14 11 10 11 10 11 12 13 13 11 10 9 8 6 4 4 1 2 1 4 4 3 6 7 8 9 9 9 11 11 12 12 13 12 12 12 13 12 10 11 12 12 14 15 15 12 12 13 13 12 13 14 13 13 14 15 14 13 14 15 12 10 7 8 9 9 7 8 8 8 7 8 9 11 12 13 13 13
5 3 4 4 6 11 14 12 14 15 11 13 16 13 11 11 11 10 10 9 4 3 4 4 1 2 3 5 4 4 7 10 8 7 8 10 11 12 12 12 13 12 12 13 13 11 12 11 12 13 14 16 15 13 13 14 14 13 13 13 13 12 13 15 16 15 16 15 13 12 9 8 8 8 8 8 8 9 9 11 11 12 10 10 9 12
1 12 12 7 10 12 13 14 12 9 11 10 7 7 7 6 6 9 6 3 3 4 6 7 9 5 4 4 4 5 6 9 11 9 10 11 12 14 14 13 12 12 13 12 11 11 13 13 12 13 15 16 14 14 14 14 14 13 13 13 12 12 14 16 17 17 17 15 13 13 11 8 8 8 8 8 9 9 8 9 13 10 10 9 12 17
10 13 9 9 10 12 14 15 13 12 11 10 12 10 4 4 2 2 3 4 5 4 4 6 9 11 11 9 5 6 8 10 13 11 12 12 13 13 13 14 14 14 15 13 13 15 14 13 13 13 16 17 15 15 14 14 13 14 13 12 10 11 13 15 15 16 16 15 14 13 12 10 10 9 8 9 9 8 9 7 9 18 19 13 11 15
Wind_Direction
139 161 177 186 220 225 214 190 211 224 230 252 153 219 248 253 270 259 262 260 151 322 249 263 263 264 262 257 263 271 277 262 266 270 267 258 259 261 262 256 253 253 253 261 264 246 230 225 217 208 196 200 195 194 186 190 193 191 192 184 192 188 178 174 173 177 173 176 174 183 193 197 189 192 189 191 193 189 193 184 184 184 186 180 179 181
113 201 209 208 222 224 206 206 220 243 303 233 257 255 261 227 269 248 267 268 254 197 277 210 269 269 265 262 259 268 275 266 258 268 269 265 256 255 259 264 258 253 262 266 272 260 230 228 216 200 195 183 186 201 189 194 195 195 191 190 192 176 181 184 183 181 182 184 184 183 191 191 188 184 186 195 192 195 187 183 185 186 182 179 182 179
203 209 214 222 228 245 252 212 201 209 233 240 232 252 281 256 257 280 265 270 260 190 275 268 263 263 262 257 256 250 256 260 252 246 263 269 267 259 256 255 261 265 261 262 258 263 244 215 206 196 199 198 201 194 195 199 193 194 192 197 185 185 183 189 184 178 188 187 186 186 184 184 181 192 195 187 181 171 181 189 188 183 181 180 182 178
254 255 233 232 238 244 266 168 159 196 225 216 239 252 244 258 286 283 217 322 354 191 287 281 283 278 263 249 245 242 246 250 256 253 255 261 259 256 254 252 257 264 265 264 261 263 255 192 203 200 203 206 199 197 202 197 196 194 198 192 187 188 188 185 186 187 184 178 169 156 131 147 138 163 153 147 144 174 175 197 189 187 184 181 182 182
222 227 233 235 196 200 233 229 193 231 256 198 220 230 258 251 238 235 265 344 303 278 264 299 289 279 226 239 234 251 239 253 260 262 258 261 259 249 257 264 258 258 266 270 273 264 257 200 207 204 208 190 199 202 200 195 193 195 197 192 189 186 186 185 181 179 166 147 132 122 99 106 95 86 139 151 185 191 195 184 190 196 179 182 184 179
267 258 125 160 205 212 216 241 220 210 262 234 220 204 233 242 267 263 283 349 359 319 318 24 332 295 181 200 214 229 248 244 249 248 254 255 259 255 255 260 261 259 252 256 263 267 267 227 221 214 207 200 208 208 206 195 199 195 194 189 184 182 183 182 180 174 165 171 164 157 157 165 175 179 177 191 199 192 193 200 176 165 186 183 182 182
232 232 170 189 189 210 202 223 228 179 241 255 255 207 235 249 248 263 275 5 281 242 310 23 194 291 161 199 223 235 235 243 258 236 246 252 254 260 248 256 262 256 261 261 261 266 264 248 217 215 206 207 207 216 198 198 199 195 189 185 183 182 182 181 177 173 171 172 178 181 182 181 183 191 203 204 196 188 191 163 177 184 178 185 181 185
183 265 192 199 181 179 182 246 239 189 227 264 232 171 209 227 229 237 226 202 249 258 285 161 132 242 296 279 200 213 221 231 247 254 254 248 253 262 256 254 259 264 251 252 258 259 256 252 224 225 212 206 215 205 185 195 188 189 184 179 182 181 182 180 174 177 180 179 182 185 190 192 196 199 202 191 188 170 162 176 179 174 184 183 187 182
166 215 183 188 171 162 200 219 243 146 186 226 291 156 194 205 213 181 181 199 221 22 294 182 87 292 255 267 145 166 207 248 245 248 246 251 256 259 260 257 256 262 264 253 252 253 261 270 257 245 224 216 210 188 192 193 189 184 179 178 178 182 180 180 179 181 186 186 184 187 188 195 207 204 194 159 156 164 168 176 175 178 181 184 189 188
300 194 205 177 156 211 226 253 144 170 203 270 111 76 69 66 69 130 128 137 303 343 258 175 172 222 276 285 122 13 180 242 239 237 248 254 250 260 267 269 267 270 273 268 252 274 280 266 250 230 227 202 204 200 192 182 172 176 172 178 180 186 183 180 182 185 187 188 184 190 196 199 198 189 163 160 171 171 170 182 182 181 180 186 187 191
233 324 168 131 200 216 137 172 170 190 182 126 77 65 4 35 28 20 68 90 30 261 257 170 194 169 273 298 169 139 199 211 232 289 284 286 272 262 261 261 272 270 262 273 307 271 277 287 293 290 226 223 204 190 180 179 178 175 179 180 184 188 180 181 184 184 188 189 190 196 196 197 194 187 172 168 178 173 175 189 186 186 189 182 190 184
254 106 173 248 89 76 105 99 28 68 145 139 176 130 25 320 11 32 343 36 190 269 231 181 182 184 224 283 291 235 274 287 214 234 256 260 263 258 266 272 267 275 288 305 316 322 338 343 351 356 257 225 212 190 186 182 178 181 182 180 185 184 187 185 185 187 191 191 196 199 196 198 197 182 184 190 190 185 188 189 187 185 176 190 187 187
258 220 204 106 224 148 151 129 320 22 74 115 95 93 180 266 28 307 31 293 191 233 259 250 153 7 242 247 269 287 262 260 239 214 229 241 265 273 269 273 289 285 290 303 4 332 329 319 292 265 248 220 196 200 197 187 180 179 181 184 184 193 187 187 185 191 192 193 200 199 198 201 193 192 194 196 192 189 190 188 184 180 194 185 186 195
271 289 127 220 76 224 139 189 195 303 210 141 165 168 140 247 241 252 268 250 290 287 252 165 191 244 279 297 209 248 251 236 224 230 237 236 247 272 284 292 298 301 311 1 10 358 307 289 271 255 240 220 207 198 196 192 188 184 185 187 191 193 185 185 190 195 195 201 202 198 198 198 193 199 197 197 197 192 193 188 192 191 192 191 199 193
304 293 237 137 234 186 182 199 200 198 160 198 144 160 191 179 164 220 205 238 233 239 350 270 131 233 105 240 218 216 256 323 243 236 230 244 247 273 302 315 310 316 313 307 297 283 278 261 250 251 232 219 207 196 194 196 194 185 191 190 193 187 191 191 194 193 202 205 202 200 200 197 196 199 197 201 199 192 192 196 196 197 194 199 203 200
215 244 259 194 111 147 184 228 156 91 56 213 160 60 31 231 126 227 222 242 269 292 321 214 213 206 222 289 303 271 279 283 267 265 331 292 345 340 313 311 304 294 294 295 303 297 266 250 263 263 253 231 217 209 200 200 197 195 198 195 196 194 189 190 190 200 204 206 201 199 198 201 197 197 197 200 201 202 197 195 194 198 197 202 194 199
261 260 277 177 48 176 178 9 217 146 221 237 103 200 220 86 159 257 306 306 75 30 253 180 297 272 304 274 245 255 254 258 281 306 321 317 326 333 283 273 276 284 288 294 295 301 309 296 258 244 236 226 223 216 213 208 206 207 194 192 197 198 191 195 199 200 198 200 202 204 202 196 195 197 199 202 201 197 192 191 198 197 199 192 194 191
253 279 63 115 254 358 204 77 345 23 131 104 191 243 20 128 105 181 226 326 235 235 253 234 255 269 2 282 10 0 27 284 287 293 286 265 255 268 304 293 286 288 284 283 284 283 275 258 261 248 220 222 224 225 225 229 229 242 230 209 199 193 195 201 199 198 195 197 205 209 207 203 201 200 203 202 200 194 189 194 195 195 190 199 190 179
52 305 289 0 157 288 350 324 324 3 117 153 186 269 139 254 265 268 98 244 242 242 260 221 269 269 227 258 304 313 297 281 279 148 302 298 303 311 298 293 292 292 292 310 315 305 304 303 264 235 236 232 228 222 220 216 215 226 233 232 214 207 207 199 195 195 197 196 202 207 212 210 207 206 207 205 197 187 193 196 197 195 199 183 180 181
30 264 285 264 108 13 5 93 233 236 273 121 56 319 149 118 203 153 199 209 226 260 251 250 225 259 225 208 218 232 244 252 259 282 257 267 255 270 286 289 291 315 335 331 324 332 331 317 232 222 242 227 221 219 221 215 205 219 221 226 231 229 220 208 202 197 200 202 200 205 208 212 212 209 205 201 195 194 197 199 195 194 189 194 181 183
264 282 256 272 211 7 297 196 217 180 196 235 216 254 242 200 210 125 298 196 222 262 243 270 249 245 268 197 212 229 217 211 188 220 253 254 271 265 264 297 328 338 331 321 315 312 314 324 331 339 24 206 214 219 220 217 216 217 203 219 221 220 218 212 208 198 208 199 206 203 203 208 206 210 206 199 198 199 201 197 194 195 196 171 187 183
311 179 245 252 288 251 249 185 197 197 216 191 199 225 221 224 263 256 257 170 229 235 251 255 255 235 256 274 214 256 212 199 208 210 256 283 288 305 317 320 332 324 298 294 295 296 309 327 328 326 327 328 224 245 234 232 221 215 209 214 219 229 228 224 221 212 209 202 205 203 210 210 211 211 201 201 198 202 199 198 196 193 179 189 191 183
164 174 175 215 220 239 246 233 188 185 183 202 178 257 234 242 227 235 257 237 249 239 254 249 267 238 209 255 269 211 195 208 223 240 261 283 304 300 295 286 282 270 275 282 290 299 310 312 307 308 303 305 281 256 251 246 234 238 235 221 215 217 230 220 224 227 222 209 206 209 211 208 208 204 206 204 202 202 200 200 196 185 189 191 188 187
83 100 329 251 258 271 277 272 256 196 242 292 253 218 222 235 217 235 241 249 256 258 248 257 241 259 172 241 267 278 257 251 256 266 279 286 270 259 265 278 281 283 282 280 284 294 302 306 303 302 299 300 296 278 258 241 236 234 229 224 219 222 229 218 220 218 216 215 214 213 208 207 205 198 201 204 206 204 202 198 195 188 190 189 183 185
255 222 214 273 258 281 270 307 284 233 134 215 237 224 223 238 242 247 262 33 278 237 255 263 263 243 254 244 258 271 282 280 274 255 200 248 270 274 267 273 268 267 274 285 287 309 325 309 295 291 291 288 288 280 261 244 237 231 232 225 222 228 230 226 224 216 220 219 217 208 206 211 205 202 203 205 205 208 202 198 194 189 191 184 187 187
237 204 157 222 235 252 251 250 252 258 233 207 221 241 235 225 234 245 256 241 251 240 233 249 261 255 247 241 255 265 272 277 283 288 259 189 239 248 250 250 266 273 278 302 332 334 313 303 307 307 300 304 300 285 268 250 239 239 241 238 231 242 247 233 222 222 226 227 224 216 207 208 202 207 206 206 207 207 202 200 194 189 190 188 188 183
264 323 232 243 249 257 263 271 267 270 335 229 254 216 236 232 234 235 250 256 250 266 253 252 263 274 260 257 263 266 272 283 293 293 293 282 227 242 255 262 285 345 5 2 360 356 355 354 345 338 335 329 318 309 302 293 284 274 264 260 245 238 240 234 219 223 223 225 226 224 216 209 207 208 209 210 209 205 199 197 194 188 192 189 189 185
139 229 242 255 251 255 262 264 271 269 271 264 270 263 253 243 239 234 234 247 254 268 263 254 266 267 264 257 255 265 272 280 279 282 284 291 302 305 327 15 35 29 16 12 14 11 2 352 351 351 347 346 345 340 330 312 295 289 285 276 273 261 254 247 227 225 223 224 225 225 221 215 214 214 215 214 209 200 198 194 190 193 192 186 189 188
320 266 269 261 261 259 261 270 272 274 266 269 261 266 265 262 257 252 251 250 252 249 263 270 264 267 265 258 258 259 265 266 273 282 292 300 317 2 42 45 32 24 11 13 6 359 357 353 348 345 346 345 344 346 343 341 334 317 289 274 272 268 248 241 232 237 233 228 225 225 221 216 215 217 219 211 204 200 197 194 193 190 188 189 193 189
278 247 249 256 276 275 277 275 274 272 273 270 266 260 255 254 255 253 258 256 251 254 257 260 260 260 264 268 273 295 318 324 325 343 358 15 22 21 25 27 16 11 9 3 1 356 350 347 345 345 343 346 346 343 342 342 338 333 326 314 283 237 236 210 224 230 233 237 241 240 230 222 219 217 211 209 208 203 198 193 189 186 188 192 191 187
239 272 355 325 301 288 279 274 268 262 264 265 267 271 266 261 263 261 265 270 272 263 261 257 257 261 296 9 12 13 17 8 13 12 13 16 16 19 16 14 9 2 359 357 353 353 347 344 345 345 348 347 345 341 340 338 337 337 336 335 329 320 285 217 242 239 239 242 240 242 241 236 231 219 214 212 211 207 195 192 188 188 189 186 185 184
325 286 298 289 296 283 277 275 276 280 278 276 276 268 267 261 260 258 254 250 252 262 264 267 266 284 354 337 345 12 14 18 9 2 10 6 5 8 14 3 4 354 352 350 347 347 349 347 348 347 344 341 339 340 341 340 339 340 340 336 334 328 321 271 247 244 241 241 242 234 228 225 227 223 224 211 209 204 198 189 184 185 185 182 183 186
253 292 301 304 290 280 286 279 291 292 295 277 261 255 254 258 258 261 260 261 265 296 299 289 19 10 306 342 -0 0 6 356 355 347 4 1 4 5 7 359 353 351 345 343 344 344 344 345 343 342 341 340 340 338 338 338 340 342 337 334 330 327 323 310 282 264 257 254 245 239 228 216 210 214 216 214 207 198 189 187 186 185 182 189 190 180
251 246 262 255 262 284 292 289 290 287 265 260 283 342 286 270 276 273 281 9 44 89 131 120 144 344 10 10 11 344 351 344 333 311 343 4 358 357 353 355 351 344 341 337 341 338 336 339 341 341 338 332 331 331 328 336 337 331 327 326 334 343 335 325 307 286 275 273 261 250 237 225 219 220 218 210 204 196 192 189 192 191 189 181 173 186
254 258 259 251 264 271 275 283 284 260 261 267 93 21 17 42 43 13 61 28 48 66 90 81 46 28 28 4 5 321 307 316 316 283 247 18 9 1 351 343 346 345 341 338 337 340 337 338 338 338 340 341 337 335 338 341 346 337 338 341 344 348 346 340 328 314 305 297 286 271 249 233 224 226 222 210 205 203 203 199 195 185 185 181 186 187
246 252 267 254 252 269 254 241 251 250 335 77 96 40 1 108 19 16 91 56 8 21 69 65 32 57 355 322 334 329 308 311 306 265 348 8 7 353 346 338 335 336 334 335 330 327 335 333 334 332 329 327 331 333 339 339 338 339 333 333 342 343 347 347 343 334 331 321 311 299 278 259 247 238 225 207 203 206 208 204 195 191 186 185 190 191
232 244 240 266 225 260 248 254 257 301 295 275 295 356 28 354 341 10 297 54 53 310 36 17 338 0 353 308 320 293 302 302 295 277 121 13 349 342 329 320 320 327 327 327 330 324 321 320 318 323 321 323 330 333 337 336 336 335 333 340 341 342 343 350 351 344 332 320 309 301 291 278 258 248 232 215 211 214 214 209 206 198 183 186 190 187
215 226 217 250 237 238 264 270 273 258 254 87 186 252 273 236 261 247 250 241 118 347 202 112 319 296 298 258 287 305 299 327 324 312 324 14 343 317 308 301 309 312 321 321 320 320 320 319 316 314 322 322 328 332 331 333 334 334 336 339 340 342 343 353 348 337 330 319 311 303 292 269 244 238 224 210 214 213 210 211 211 204 190 193 189 194
231 227 243 243 270 270 272 273 280 289 290 131 282 280 260 251 250 254 208 236 116 131 230 163 229 228 252 274 269 304 349 336 310 307 335 340 324 315 306 304 305 308 307 312 315 317 321 320 320 319 323 330 331 336 337 335 336 336 335 336 337 337 342 347 341 337 330 321 314 306 292 269 236 228 220 219 222 209 207 202 203 190 177 192 185 191
13 317 80 249 255 254 269 263 264 255 260 134 323 284 262 278 288 178 268 240 132 205 216 199 267 261 252 223 243 240 342 314 307 305 321 318 301 294 299 308 309 306 306 307 308 310 311 312 319 326 331 333 332 332 338 336 334 333 331 331 331 336 340 337 332 321 316 314 314 312 304 284 254 232 213 212 202 185 195 160 149 158 160 166 164 166
319 308 199 243 256 275 272 279 290 279 133 232 299 302 294 307 54 292 273 333 336 285 212 207 242 251 237 234 227 232 247 246 271 282 291 288 283 280 281 284 289 297 306 310 313 318 316 318 321 320 323 324 326 332 333 336 333 330 329 330 334 332 333 326 319 320 320 320 319 317 308 300 263 232 178 152 156 140 129 141 150 140 153 159 149 149
286 183 300 235 225 237 251 257 252 273 228 120 305 210 255 39 320 254 242 308 298 289 250 200 235 250 236 225 228 225 251 255 252 268 284 283 277 285 290 292 294 298 294 299 307 314 312 312 315 313 317 321 325 326 332 330 329 324 327 328 328 326 324 325 318 315 321 322 319 311 298 278 252 177 152 133 133 135 142 132 137 151 154 153 147 154
218 270 225 242 238 306 232 264 275 268 224 116 278 329 291 38 219 241 287 275 233 245 257 251 211 238 234 245 241 249 260 259 255 262 269 284 295 300 303 305 306 305 310 311 310 306 308 310 310 311 313 320 326 328 327 328 321 320 319 320 318 321 324 322 318 313 313 311 307 299 283 266 224 201 166 155 155 155 157 146 144 152 155 158 161 168
208 258 235 253 197 266 232 238 234 227 238 319 15 281 284 279 268 263 274 290 268 237 240 248 239 224 223 231 254 259 256 265 276 279 284 288 291 295 298 299 301 303 303 301 298 301 300 300 301 305 311 316 323 326 324 325 319 317 317 313 316 318 318 320 318 314 305 297 286 276 266 258 251 225 189 168 161 161 158 160 158 158 170 171 173 177
183 219 208 252 206 223 209 242 243 276 314 311 283 273 264 264 262 219 240 271 290 274 231 230 244 244 220 227 240 251 265 253 260 271 283 282 289 292 294 297 298 300 299 300 299 299 303 304 309 311 312 314 318 319 317 319 315 313 312 312 318 319 316 316 315 312 307 297 283 263 252 243 243 233 214 194 172 169 170 164 165 167 175 176 184 185
304 225 101 350 259 266 249 250 271 288 277 268 265 265 263 270 272 271 272 285 263 257 246 237 236 241 243 205 214 255 248 265 275 281 283 291 294 295 296 298 296 291 294 294 295 302 305 309 308 308 307 309 313 313 313 311 314 309 306 311 314 310 312 311 313 309 303 301 286 264 243 237 239 233 227 212 205 190 180 176 178 181 180 186 193 191
247 247 241 242 267 276 267 256 256 254 254 249 257 272 274 255 265 280 285 264 252 254 262 242 228 236 222 205 222 245 265 270 278 281 286 291 290 290 293 294 296 298 300 301 296 303 306 302 301 302 307 306 306 306 305 306 305 300 302 305 307 308 309 310 307 304 301 296 294 271 231 235 233 226 225 218 220 207 189 182 180 185 188 192 191 195
283 172 200 239 256 245 266 264 265 257 246 258 264 272 276 282 279 275 261 255 253 256 249 248 193 285 282 272 253 257 270 276 276 280 285 285 287 290 290 290 291 297 294 291 296 301 303 300 299 303 304 301 298 301 302 299 298 297 298 297 302 307 308 306 306 304 301 296 292 282 247 237 232 225 220 218 210 206 204 195 189 192 197 194 195 192
238 69 214 171 227 252 264 274 273 268 272 269 266 264 259 258 265 269 266 266 287 303 325 330 3 292 317 287 317 303 289 284 279 276 278 284 284 284 283 284 287 287 289 292 293 299 294 299 300 298 295 291 291 294 294 291 292 294 294 297 301 307 310 309 308 306 298 293 288 279 261 239 234 221 224 220 215 221 211 196 196 206 213 215 204 201
203 249 254 255 263 258 259 264 263 275 275 271 268 264 266 260 246 255 273 323 26 7 353 337 318 319 292 286 290 290 284 290 294 292 285 281 280 283 287 287 288 288 285 283 286 288 289 289 288 287 285 283 285 287 286 287 289 289 290 293 302 314 315 311 305 299 292 288 282 277 270 252 240 227 224 220 220 219 229 224 215 210 208 212 208 218
226 245 251 247 246 257 254 257 260 262 276 277 278 290 9 9 353 3 32 12 352 354 340 332 315 314 309 304 303 293 287 286 286 292 287 282 281 281 282 288 290 289 287 290 293 289 287 287 286 285 281 281 285 285 286 287 286 286 286 292 303 313 306 299 294 289 285 284 279 272 266 258 250 236 224 223 222 218 220 225 224 223 222 221 208 210